Regional Weather Roundup
Issued by NWS Mt. Holly, NJ

Home | Current Version | Previous Version | Text Only | Print | Product List | Glossary On
Versions: 1 2 3 4 5 6 7 8 9 10 11 12 13 14 15 16 17 18 19 20 21 22 23 24 25 26 27 28 29 30 31 32 33 34 35 36 37 38 39 40 41 42 43 44 45 46 47 48 49 50
049
ASUS41 KPHI 100112
RWRPHI

REGIONAL WEATHER ROUNDUP
NATIONAL WEATHER SERVICE MOUNT HOLLY NJ
800 PM EST TUE FEB 09 2016

NOTE:  "FAIR" INDICATES FEW OR NO CLOUDS BELOW 12,000 FEET WITH NO
SIGNIFICANT WEATHER AND/OR OBSTRUCTIONS TO VISIBILITY.

 * = STATION DOES NOT REPORT PRECIPITATION (E.G. RAIN, SNOW, ETC.)
        OR FOG.

NJZ015>026-100200-
SOUTHERN NEW JERSEY

CITY           SKY/WX    TMP DP  RH WIND       PRES   REMARKS
POMONA         FLURRIES  34  31  88 NE6       29.61R WCI  29
WILDWOOD*      CLOUDY    37  34  87 CALM      29.61R
MILLVILLE      LGT SNOW  35  33  92 W3        29.62R FOG
WRIGHTSTOWN    FLURRIES  32  32 100 NE3       29.59S
MOUNT HOLLY    LGT SNOW  31  31 100 CALM      29.62S FOG
TRENTON        LGT SNOW  32  29  88 E3        29.61S FOG

$$
NJZ001>014-100200-
NORTHERN NEW JERSEY

CITY           SKY/WX    TMP DP  RH WIND       PRES   REMARKS
SUSSEX         MOCLDY    29  24  82 CALM      29.58S
ANDOVER*         N/A     31  26  82 CALM      29.58S
MORRISTOWN     FLURRIES  32  28  86 CALM      29.62S
NEWARK         FLURRIES  34  26  72 W3        29.62R
TETERBORO      CLOUDY    34  23  64 CALM      29.61R
CALDWELL       LGT SNOW  32  26  78 CALM      29.62R
SOMERVILLE     CLOUDY    31  28  89 CALM      29.60S FOG
ALLAIRE*       CLOUDY    32  23  69 CALM      29.62R
TOMS RIVER*    CLOUDY    32  28  86 N3        29.62S

$$
PAZ043-044-047-054-055-060>062-066>071-100200-
EASTERN PENNSYLVANIA

CITY           SKY/WX    TMP DP  RH WIND       PRES   REMARKS
PHILADELPHIA   CLOUDY    34  31  88 E5        29.63R FOG     WCI  30
NORTH PHILA    LGT SNOW  34  31  88 E3        29.63S FOG
BLUE BELL*       N/A     32  32 100 CALM      29.60S
DOYLESTOWN     LGT SNOW  30  29  96 CALM      29.60S FOG
QUAKERTOWN*    CLOUDY    30  30 100 CALM      29.61R
PERKASIE*      LGT SNOW  30  30 100 CALM      29.60S VSB 1
POTTSTOWN      LGT SNOW  30  29  96 CALM      29.62S FOG
LANCASTER      LGT SNOW  30  30 100 CALM      29.61S FOG
COATESVILLE    LGT SNOW  30  30 100 CALM      29.61R
READING        LGT SNOW  31  29  92 S3        29.60S FOG
ALLENTOWN      LGT SNOW  32  28  85 CALM      29.60S VSB 3/4
MOUNT POCONO   LGT SNOW  27  24  89 SW3       29.51R FOG
HAZLETON       LGT SNOW  30  28  93 CALM      29.56S
LEHIGHTON      LGT SNOW  32  32 100 CALM      29.60S
WILKES BARRE   LGT SNOW  31  30  96 W6        29.55R FOG     WCI  25

$$
DEZALL-MDZ008-012-015-019-020-100200-
DELAWARE AND EASTERN MARYLAND

CITY           SKY/WX    TMP DP  RH WIND       PRES   REMARKS
WILMINGTON     LGT SNOW  32  31  96 NW5       29.63R VSB 3/4 WCI  27
DOVER          DRIZZLE   34  34 100 W6        29.61S WCI  29
GEORGETOWN     CLOUDY    36  34  92 NW5       29.62F WCI  32
EASTON         PTCLDY    36  36 100 CALM      29.67R
ABERDEEN       LGT RAIN  34  32  93 CALM      29.65R FOG
PATUXENT       FLURRIES  36  33  89 W8        29.66R WCI  30
OCEAN CITY     MOCLDY    36  34  92 W6        29.63S WCI  31
WALLOPS ISLAND LGT RAIN  37  34  89 W7        29.64F WCI  32
CAMBRIDGE      CLOUDY    34  30  86 W6        29.64R WCI  29
SALISBURY      CLOUDY    34  32  92 W5        29.63S WCI  30

$$
PAZ001-021-NYZ056-072-MDZ011-DCZ001-100200-
OTHER NEARBY LOCATIONS

CITY           SKY/WX    TMP DP  RH WIND       PRES   REMARKS
HARRISBURG     LGT SNOW  32  30  92 NW3       29.61S VSB 3/4
STATE COLLEGE  CLOUDY   N/A N/A N/A W16G25    29.58R
WILLIAMSPORT   LGT SNOW  34  30  85 E3        29.57S VSB 1
BINGHAMTON     LGT SNOW  30  28  92 SW6       29.49S FOG     WCI  24
NEW YORK CITY  CLOUDY    34  24  67 CALM      29.63R
BALTIMORE      MOCLDY    33  27  78 NW9       29.64R WCI  25
WASHINGTON DC  MOCLDY    35  26  69 NW7       29.66R WCI  29

$$




USA.gov is the U.S. government's official web portal to all federal, state and local government web resources and services.